CW6238 Weather Reports


Display with metric or nautical units.
time (UTC)temp
F
wind
direction
speed
MPH
gust
MPH
rain 1hr
in
rain 24hr
in
rain mn
in
humidity
%
barometer
mb
20260506061520 47 0.0 2.0 0.00 0.00 0.00 49 1008.7
20260506060519 46 0.0 0.0 0.00 0.00 0.00 51 1008.6
20260506050518 43 0.0 0.0 0.00 0.00 0.00 73 1008.2
20260506044518 39 0.0 0.0 0.00 0.00 0.00 92 1008.1
20260506043559 35 0.0 0.0 0.00 0.00 0.00 94 1008.2
20260506042518 32 0.0 0.0 0.00 0.00 0.00 94 1008.0
20260506041520 30 0.0 0.0 0.00 0.00 0.00 94 1007.9
20260506040518 29 0.0 0.0 0.00 0.00 0.00 93 1007.9
20260506035518 29 0.0 0.0 0.00 0.00 0.00 93 1007.8
20260506034524 29 0.0 0.0 0.00 0.00 0.00 93 1007.7
20260506033540 28 0.0 0.0 0.00 0.00 0.00 93 1007.5
20260506032518 28 0.0 0.0 0.00 0.00 0.00 93 1007.5
20260506031518 27 0.0 0.0 0.00 0.00 0.00 93 1007.4
20260506030520 27 0.0 0.0 0.00 0.00 0.00 93 1007.3
20260506025538 27 0.0 0.0 0.00 0.00 0.00 93 1007.2
20260506024520 27 0.0 0.0 0.00 0.00 0.00 92 1007.2
20260506023520 28 0.0 0.0 0.00 0.00 0.00 92 1007.2
20260506022520 28 0.0 0.0 0.00 0.00 0.00 92 1007.2
20260506021518 29 0.0 0.0 0.00 0.00 0.00 92 1007.1
20260506020520 29 0.0 0.0 0.00 0.00 0.00 92 1007.0
20260506015520 29 0.0 0.0 0.00 0.00 0.00 92 1006.9
20260506014524 29 0.0 0.0 0.00 0.00 0.00 91 1006.8
20260506013522 29 0.0 0.0 0.00 0.00 0.00 91 1006.8
20260506012520 29 0.0 0.0 0.00 0.00 0.00 91 1006.7
20260506011520 29 0.0 0.0 0.00 0.00 0.00 90 1006.6
20260506010520 30 0.0 0.0 0.00 0.00 0.00 89 1006.5
20260506005520 30 0.0 0.0 0.00 0.00 0.00 89 1006.4
20260506004520 30 0.0 0.0 0.00 0.00 0.00 89 1006.3
20260506003520 31 0.0 0.0 0.00 0.00 0.00 89 1006.3
20260506002602 31 0.0 0.0 0.00 0.00 0.00 89 1006.2
20260506001520 31 0.0 0.0 0.00 0.00 0.00 88 1006.2
20260506000540 31 0.0 0.0 0.00 0.00 0.00 88 1006.1
20260505235520 31 0.0 0.0 0.00 0.00 0.00 88 1006.1
20260505234520 31 0.0 0.0 0.00 0.00 0.00 88 1006.1
20260505233520 31 0.0 0.0 0.00 0.00 0.00 88 1006.0
20260505232520 32 0.0 0.0 0.00 0.00 0.00 87 1006.0
20260505231520 32 0.0 0.0 0.00 0.00 0.00 86 1005.8
20260505230545 32 0.0 0.0 0.00 0.00 0.00 86 1005.8
20260505225540 33 0.0 0.0 0.00 0.00 0.00 85 1005.7
20260505224519 33 0.0 0.0 0.00 0.00 0.00 84 1005.8
20260505223540 34 0.0 0.0 0.00 0.00 0.00 83 1005.8
20260505222520 34 0.0 0.0 0.00 0.00 0.00 82 1005.7
20260505221520 35 0.0 0.0 0.00 0.00 0.00 82 1005.7
20260505220540 36 0.0 0.0 0.00 0.00 0.00 80 1005.6
20260505215540 36 0.0 0.0 0.00 0.00 0.00 79 1005.5
20260505214519 37 0.0 0.0 0.00 0.00 0.00 77 1005.4
20260505213520 38 0.0 0.0 0.00 0.00 0.00 75 1005.4
20260505212519 38 0.0 0.0 0.00 0.00 0.00 74 1005.3
20260505211520 39 0.0 0.0 0.00 0.00 0.00 73 1005.2
20260505210520 39 0.0 0.0 0.00 0.00 0.00 72 1005.1
20260505205540 40 0.0 0.0 0.00 0.00 0.00 72 1005.1
20260505204519 40 0.0 0.0 0.00 0.00 0.00 70 1004.9
20260505203601 41 0.0 0.0 0.00 0.00 0.00 69 1004.8
20260505202523 42 0.0 0.0 0.00 0.00 0.00 66 1004.8
20260505201519 42 0.0 0.0 0.00 0.00 0.00 62 1004.7
20260505200519 43 0.0 0.0 0.00 0.00 0.00 62 1004.6
20260505195519 42 0.0 0.0 0.00 0.00 0.00 58 1004.6
20260505194520 43 0.0 0.0 0.00 0.00 0.00 56 1004.4
20260505193520 44 0.0 0.0 0.00 0.00 0.00 54 1004.3
20260505192520 45 0.0 0.0 0.00 0.00 0.00 53 1004.2
20260505191519 45 0.0 0.0 0.00 0.00 0.00 50 1004.0
20260505190519 46 0.0 0.0 0.00 0.00 0.00 48 1004.0
20260505185519 46 0.0 0.0 0.00 0.00 0.00 47 1003.9
20260505184519 47 0.0 0.0 0.00 0.00 0.00 46 1003.9
20260505183519 47 0.0 2.0 0.00 0.00 0.00 45 1003.7
20260505182519 47 293 1.0 2.0 0.00 0.00 0.00 44 1003.7
20260505181539 48 293 1.0 3.0 0.00 0.00 0.00 44 1003.5
20260505180539 48 270 1.0 5.0 0.00 0.00 0.00 43 1003.4
20260505175519 48 293 1.0 4.0 0.00 0.00 0.00 42 1003.3
20260505174519 49 0.0 3.0 0.00 0.00 0.00 41 1003.2
20260505173519 49 293 1.0 2.0 0.00 0.00 0.00 40 1003.1
20260505172519 49 293 2.0 5.0 0.00 0.00 0.00 39 1003.0
20260505171519 49 270 1.0 3.0 0.00 0.00 0.00 40 1002.8
20260505170520 49 270 2.0 6.0 0.00 0.00 0.00 37 1002.8
20260505165520 49 270 4.0 8.0 0.00 0.00 0.00 35 1002.7
20260505164519 50 293 2.0 5.0 0.00 0.00 0.00 37 1002.7
20260505163519 50 270 4.0 7.0 0.00 0.00 0.00 36 1002.7
20260505162519 50 293 4.0 9.0 0.00 0.00 0.00 36 1002.6
20260505161519 50 293 3.0 9.0 0.00 0.00 0.00 36 1002.6
20260505160523 50 293 4.0 9.0 0.00 0.00 0.00 35 1002.6
20260505152520 52 293 4.0 12.0 0.00 0.00 0.00 33 1002.5
20260505151522 52 293 4.0 10.0 0.00 0.00 0.00 32 1002.4
20260505150519 52 270 6.0 13.0 0.00 0.00 0.00 32 1002.4
20260505140521 52 270 5.0 8.0 0.00 0.00 0.00 35 1002.3
20260505124539 50 270 6.0 9.0 0.00 0.00 0.00 35 1002.3
20260505123519 51 270 6.0 12.0 0.00 0.00 0.00 34 1002.1
20260505122521 51 270 6.0 10.0 0.00 0.00 0.00 37 1002.0
20260505121536 50 270 5.0 12.0 0.00 0.00 0.00 36 1002.1
20260505120519 51 270 6.0 12.0 0.00 0.00 0.00 34 1002.1
20260505115539 51 270 6.0 14.0 0.00 0.00 0.00 36 1002.0
20260505114518 51 270 5.0 11.0 0.00 0.00 0.00 36 1001.9
20260505113519 51 270 3.0 12.0 0.00 0.00 0.00 39 1001.9
20260505112539 50 270 7.0 13.0 0.00 0.00 0.00 38 1002.0
20260505111518 51 270 5.0 11.0 0.00 0.00 0.00 41 1002.0
20260505110520 51 293 5.0 13.0 0.00 0.00 0.00 43 1001.9
20260505101519 49 270 7.0 12.0 0.00 0.00 0.00 44 1001.8
20260505100518 49 270 5.0 10.0 0.00 0.00 0.00 45 1001.8
20260505095519 49 293 6.0 15.0 0.00 0.00 0.00 53 1001.7
20260505094604 48 270 6.0 14.0 0.00 0.00 0.00 53 1001.6
20260505093518 48 270 5.0 16.0 0.00 0.00 0.00 55 1001.7
20260505092519 48 270 5.0 12.0 0.00 0.00 0.00 57 1001.6
20260505091519 47 270 6.0 13.0 0.00 0.00 0.00 58 1001.6
20260505090519 48 270 6.0 13.0 0.00 0.00 0.00 57 1001.5
20260505085538 48 270 5.0 11.0 0.00 0.00 0.00 61 1001.4
20260505084519 48 293 4.0 9.0 0.00 0.00 0.00 61 1001.2
20260505083519 48 270 4.0 11.0 0.00 0.00 0.00 63 1001.2
20260505082519 47 270 7.0 14.0 0.00 0.00 0.00 63 1001.0
20260505081519 48 270 3.0 11.0 0.00 0.00 0.00 63 1001.1
20260505080519 47 270 4.0 10.0 0.00 0.00 0.00 65 1000.9
20260505075519 46 293 4.0 10.0 0.00 0.00 0.00 65 1000.9
20260505074539 46 270 6.0 14.0 0.00 0.00 0.00 66 1000.8
20260505073520 45 270 4.0 9.0 0.00 0.00 0.00 69 1000.8
20260505072518 45 270 6.0 12.0 0.00 0.00 0.00 69 1000.7
20260505071538 45 270 5.0 10.0 0.00 0.00 0.00 72 1000.7
20260505070519 45 270 4.0 8.0 0.00 0.01 0.00 72 1000.5